Hourly Weather Kozuby

Today, 30 October, Friday

Time Temperature Precipitation Wind Pressure Humidity
00:00 +6°C° 0 mm 4 mps 752 mmHg 86%
01:00 +6°C° 0 mm 4 mps 753 mmHg 87%
02:00 +5°C° 0 mm 4 mps 753 mmHg 88%
03:00 +5°C° 0 mm 4 mps 753 mmHg 90%
04:00 +5°C° 0 mm 4 mps 753 mmHg 91%
05:00 +5°C° 0 mm 4 mps 753 mmHg 92%
06:00 +5°C° 0 mm 3 mps 753 mmHg 93%
07:00 +4°C° 0 mm 3 mps 753 mmHg 93%
08:00 +5°C° 0 mm 3 mps 753 mmHg 88%
09:00 +8°C° 0 mm 3 mps 753 mmHg 82%
10:00 +9°C° 0 mm 3 mps 753 mmHg 76%
11:00 +9°C° 0 mm 3 mps 753 mmHg 73%
12:00 +10°C° 0 mm 3 mps 753 mmHg 70%
13:00 +11°C° 0 mm 3 mps 752 mmHg 67%
14:00 +10°C° 0.1 mm 3 mps 752 mmHg 72%
15:00 +9°C° 0.1 mm 3 mps 752 mmHg 77%
16:00 +9°C° 0.1 mm 3 mps 751 mmHg 82%
17:00 +9°C° 0.5 mm 2 mps 751 mmHg 86%
18:00 +9°C° 0.5 mm 2 mps 751 mmHg 89%
19:00 +8°C° 0.5 mm 2 mps 751 mmHg 93%
20:00 +8°C° 0.9 mm 2 mps 751 mmHg 94%
21:00 +8°C° 0.9 mm 2 mps 752 mmHg 94%
22:00 +8°C° 0.9 mm 2 mps 752 mmHg 95%
23:00 +8°C° 0.2 mm 2 mps 752 mmHg 95%

Tomorrow, 31 October, Saturday

Time Temperature Precipitation Wind Pressure Humidity
00:00 +9°C° 0.2 mm 1 mps 752 mmHg 95%
01:00 +9°C° 0.2 mm 1 mps 753 mmHg 94%
02:00 +9°C° 0 mm 1 mps 753 mmHg 94%
03:00 +9°C° 0 mm 1 mps 754 mmHg 94%
04:00 +8°C° 0 mm 2 mps 754 mmHg 94%
05:00 +7°C° 0 mm 2 mps 755 mmHg 94%
06:00 +8°C° 0 mm 1 mps 755 mmHg 94%
07:00 +7°C° 0 mm 1 mps 756 mmHg 94%
08:00 +8°C° 0 mm 1 mps 756 mmHg 88%
09:00 +10°C° 0 mm 1 mps 757 mmHg 82%
10:00 +11°C° 0 mm 1 mps 757 mmHg 77%
11:00 +11°C° 0 mm 1 mps 757 mmHg 72%
12:00 +12°C° 0 mm 1 mps 757 mmHg 68%
13:00 +13°C° 0 mm 1 mps 757 mmHg 63%
14:00 +12°C° 0 mm 1 mps 757 mmHg 66%
15:00 +11°C° 0 mm 1 mps 757 mmHg 69%
16:00 +11°C° 0 mm 1 mps 757 mmHg 72%
17:00 +10°C° 0 mm 1 mps 757 mmHg 75%
18:00 +9°C° 0 mm 1 mps 757 mmHg 78%
19:00 +9°C° 0 mm 1 mps 757 mmHg 80%
20:00 +7°C° 0 mm 2 mps 757 mmHg 82%
21:00 +7°C° 0 mm 2 mps 757 mmHg 84%
22:00 +7°C° 0 mm 2 mps 758 mmHg 85%
23:00 +6°C° 0 mm 2 mps 757 mmHg 86%

Day after tomorrow, 1 November, Sunday

Time Temperature Precipitation Wind Pressure Humidity
00:00 +6°C° 0 mm 2 mps 757 mmHg 87%
01:00 +6°C° 0 mm 2 mps 757 mmHg 87%
02:00 +6°C° 0 mm 2 mps 757 mmHg 88%
03:00 +5°C° 0 mm 2 mps 757 mmHg 88%
04:00 +4°C° 0 mm 3 mps 756 mmHg 89%
05:00 +4°C° 0 mm 3 mps 756 mmHg 89%
06:00 +4°C° 0 mm 3 mps 756 mmHg 90%
07:00 +4°C° 0 mm 3 mps 756 mmHg 90%
08:00 +5°C° 0 mm 3 mps 756 mmHg 84%
09:00 +7°C° 0 mm 4 mps 755 mmHg 78%
10:00 +8°C° 0 mm 4 mps 755 mmHg 72%
11:00 +10°C° 0 mm 4 mps 755 mmHg 69%
12:00 +11°C° 0 mm 4 mps 754 mmHg 65%
13:00 +12°C° 0 mm 4 mps 754 mmHg 61%
14:00 +11°C° 0 mm 4 mps 753 mmHg 66%
15:00 +11°C° 0 mm 4 mps 753 mmHg 70%
16:00 +10°C° 0 mm 3 mps 752 mmHg 75%
17:00 +10°C° 0 mm 4 mps 752 mmHg 77%
18:00 +10°C° 0 mm 4 mps 752 mmHg 79%
19:00 +8°C° 0 mm 4 mps 752 mmHg 82%
20:00 +8°C° 0 mm 4 mps 751 mmHg 84%
21:00 +8°C° 0 mm 4 mps 751 mmHg 87%
22:00 +8°C° 0 mm 4 mps 751 mmHg 89%
23:00 +10°C° 0.4 mm 3 mps 751 mmHg 91%

2 November, Monday

Time Temperature Precipitation Wind Pressure Humidity
00:00 +10°C° 0.4 mm 3 mps 751 mmHg 93%
01:00 +10°C° 0.4 mm 3 mps 751 mmHg 95%
02:00 +10°C° 0.1 mm 3 mps 751 mmHg 95%
03:00 +10°C° 0.1 mm 3 mps 750 mmHg 95%
04:00 +10°C° 0.1 mm 3 mps 750 mmHg 95%
05:00 +11°C° 0 mm 3 mps 750 mmHg 95%
06:00 +11°C° 0 mm 4 mps 750 mmHg 94%
07:00 +11°C° 0 mm 4 mps 750 mmHg 94%
08:00 +12°C° 0 mm 4 mps 750 mmHg 92%
09:00 +12°C° 0 mm 4 mps 750 mmHg 89%
10:00 +13°C° 0 mm 3 mps 750 mmHg 87%
11:00 +13°C° 0 mm 4 mps 750 mmHg 88%
12:00 +13°C° 0 mm 4 mps 750 mmHg 89%
13:00 +13°C° 0 mm 4 mps 750 mmHg 89%
14:00 +13°C° 0 mm 4 mps 750 mmHg 89%
15:00 +13°C° 0 mm 4 mps 750 mmHg 88%
16:00 +14°C° 0 mm 4 mps 749 mmHg 88%
17:00 +14°C° 0 mm 4 mps 749 mmHg 89%
18:00 +14°C° 0 mm 4 mps 750 mmHg 90%
19:00 +14°C° 0 mm 4 mps 750 mmHg 91%
20:00 +14°C° 0 mm 4 mps 750 mmHg 90%
21:00 +14°C° 0 mm 4 mps 750 mmHg 90%
22:00 +14°C° 0 mm 5 mps 750 mmHg 90%
23:00 +14°C° 0 mm 5 mps 750 mmHg 90%

3 November, Tuesday

Time Temperature Precipitation Wind Pressure Humidity
00:00 +14°C° 0 mm 5 mps 750 mmHg 89%
01:00 +14°C° 0 mm 5 mps 750 mmHg 89%
02:00 +14°C° 0 mm 5 mps 750 mmHg 89%
03:00 +14°C° 0 mm 5 mps 750 mmHg 89%
04:00 +14°C° 0 mm 5 mps 750 mmHg 89%
05:00 +14°C° 0 mm 4 mps 750 mmHg 89%
06:00 +14°C° 0 mm 4 mps 751 mmHg 89%
07:00 +14°C° 0 mm 4 mps 751 mmHg 89%
08:00 +14°C° 0 mm 4 mps 752 mmHg 86%
09:00 +15°C° 0 mm 5 mps 752 mmHg 83%
10:00 +15°C° 0 mm 5 mps 753 mmHg 81%
11:00 +15°C° 0 mm 5 mps 754 mmHg 74%
12:00 +15°C° 0 mm 6 mps 754 mmHg 67%
13:00 +15°C° 0 mm 6 mps 755 mmHg 60%
14:00 +14°C° 0 mm 5 mps 755 mmHg 61%
15:00 +13°C° 0 mm 4 mps 756 mmHg 62%
16:00 +12°C° 0 mm 3 mps 756 mmHg 64%
17:00 +12°C° 0 mm 2 mps 756 mmHg 66%
18:00 +10°C° 0 mm 2 mps 757 mmHg 69%
19:00 +10°C° 0 mm 2 mps 757 mmHg 71%
20:00 +9°C° 0 mm 2 mps 758 mmHg 72%
21:00 +10°C° 0 mm 1 mps 758 mmHg 72%
22:00 +9°C° 0 mm 1 mps 758 mmHg 73%
23:00 +9°C° 0 mm 1 mps 758 mmHg 73%

4 November, Wednesday

Time Temperature Precipitation Wind Pressure Humidity
00:00 +9°C° 0 mm 1 mps 758 mmHg 72%
01:00 +9°C° 0 mm 1 mps 758 mmHg 72%
02:00 +9°C° 0 mm 1 mps 758 mmHg 72%
03:00 +9°C° 0 mm 1 mps 759 mmHg 73%
04:00 +9°C° 0 mm 1 mps 759 mmHg 73%
05:00 +9°C° 0 mm 1 mps 759 mmHg 73%
06:00 +9°C° 0 mm 1 mps 759 mmHg 73%
07:00 +8°C° 0 mm 0 mps 760 mmHg 74%
08:00 +9°C° 0 mm 1 mps 760 mmHg 73%
09:00 +9°C° 0 mm 1 mps 760 mmHg 73%
10:00 +10°C° 0 mm 1 mps 760 mmHg 72%
11:00 +9°C° 0.4 mm 2 mps 761 mmHg 74%
12:00 +8°C° 0.4 mm 2 mps 761 mmHg 76%
13:00 +8°C° 0.4 mm 2 mps 761 mmHg 77%
14:00 +8°C° 0.3 mm 2 mps 761 mmHg 77%
15:00 +8°C° 0.3 mm 2 mps 761 mmHg 77%
16:00 +8°C° 0.3 mm 2 mps 762 mmHg 77%
17:00 +8°C° 0.1 mm 2 mps 762 mmHg 78%
18:00 +8°C° 0.1 mm 2 mps 763 mmHg 78%
19:00 +8°C° 0.1 mm 2 mps 763 mmHg 78%
20:00 +8°C° 0 mm 2 mps 764 mmHg 78%
21:00 +7°C° 0 mm 2 mps 764 mmHg 78%
22:00 +7°C° 0 mm 2 mps 764 mmHg 77%
23:00 +7°C° 0 mm 2 mps 764 mmHg 78%
Show more